Location: Rochester
(43.1610°N, 77.6109°W)
Time: 09:14:02
(UTC-05:00)

CUTE 1.7 + AOD 2 - Pass Details

Date: 19 October 2021
Orbit: 592 x 611 km, 97.6° (Epoch: 04 December)

Event Time Altitude Azimuth Distance (km) Brightness Sun altitude
Rises 04:35:15 0° 25° (NNE) 2,884 ? -32.2°
Reaches altitude 10° 04:37:46 10° 39° (NE) 1,974 ? -31.7°
Maximum altitude 04:41:19 25° 94° (E) 1,253 ? -31.1°
Enters shadow 04:43:06 19° 130° (SE) 1,466 ? -30.8°
